Time,TemperatureF,DewpointF,PressureIn,WindDirection,WindDirectionDegrees,WindSpeedMPH,WindSpeedGustMPH,Humidity,HourlyPrecipIn,Conditions,Clouds,dailyrainin,SolarRadiationWatts/m^2,SoftwareType,DateUTC
2013-12-08 00:00:00,26.9,14.9,30.52,East,88,4.0,7.0,60,0.00,,,0.01,0.00,VWS V14.01,2013-12-08 05:00:00,
2013-12-08 00:01:00,26.9,14.9,30.52,East,83,4.0,4.0,60,0.00,,,0.00,0.00,VWS V14.01,2013-12-08 05:01:00,
2013-12-08 00:06:00,26.7,15.1,30.52,East,79,1.0,4.0,61,0.00,,,0.00,0.00,VWS V14.01,2013-12-08 05:06:00,
2013-12-08 00:11:00,26.7,15.1,30.52,East,79,0.0,4.0,61,0.00,,,0.00,0.00,VWS V14.01,2013-12-08 05:11:00,
2013-12-08 00:15:00,26.6,15.0,30.52,ENE,78,0.0,5.0,61,0.00,,,0.00,0.00,VWS V14.01,2013-12-08 05:15:00,
2013-12-08 00:16:00,26.6,15.0,30.52,NE,45,5.0,5.0,61,0.00,,,0.00,0.00,VWS V14.01,2013-12-08 05:16:00,
2013-12-08 00:21:00,26.4,15.2,30.52,NE,49,0.0,7.0,62,0.00,,,0.00,0.00,VWS V14.01,2013-12-08 05:21:00,
2013-12-08 00:26:00,26.4,15.2,30.52,NE,49,0.0,7.0,62,0.00,,,0.00,0.00,VWS V14.01,2013-12-08 05:26:00,
2013-12-08 00:30:00,26.4,15.5,30.52,ENE,69,3.0,7.0,63,0.00,,,0.00,0.00,VWS V14.01,2013-12-08 05:30:00,
2013-12-08 00:31:00,26.3,15.4,30.52,ENE,69,1.0,3.0,63,0.00,,,0.00,0.00,VWS V14.01,2013-12-08 05:31:00,
2013-12-08 00:36:00,26.3,15.8,30.52,ENE,69,0.0,4.0,64,0.00,,,0.00,0.00,VWS V14.01,2013-12-08 05:36:00,
2013-12-08 00:41:00,26.1,15.6,30.52,ESE,105,2.0,5.0,64,0.00,,,0.00,0.00,VWS V14.01,2013-12-08 05:41:00,
2013-12-08 00:45:00,26.1,15.6,30.52,ESE,105,0.0,5.0,64,0.00,,,0.00,0.00,VWS V14.01,2013-12-08 05:45:00,
2013-12-08 00:46:00,26.1,15.6,30.52,ESE,105,0.0,0.0,64,0.00,,,0.00,0.00,VWS V14.01,2013-12-08 05:46:00,
2013-12-08 00:51:00,26.1,16.0,30.52,ESE,105,0.0,0.0,65,0.00,,,0.00,0.00,VWS V14.01,2013-12-08 05:51:00,
2013-12-08 00:56:00,26.0,15.9,30.52,ESE,105,0.0,0.0,65,0.00,,,0.00,0.00,VWS V14.01,2013-12-08 05:56:00,
2013-12-08 01:00:00,26.0,16.2,30.52,ESE,105,0.0,0.0,66,0.00,,,0.00,0.00,VWS V14.01,2013-12-08 06:00:00,
2013-12-08 01:01:00,26.0,16.2,30.52,ESE,105,0.0,0.0,66,0.00,,,0.00,0.00,VWS V14.01,2013-12-08 06:01:00,
2013-12-08 01:06:00,25.8,16.0,30.52,ESE,105,0.0,0.0,66,0.00,,,0.00,0.00,VWS V14.01,2013-12-08 06:06:00,
2013-12-08 01:11:00,25.7,15.9,30.52,ESE,105,0.0,0.0,66,0.00,,,0.00,0.00,VWS V14.01,2013-12-08 06:11:00,
2013-12-08 01:15:00,25.7,16.3,30.52,ESE,105,0.0,0.0,67,0.00,,,0.00,0.00,VWS V14.01,2013-12-08 06:15:00,
2013-12-08 01:16:00,25.7,16.3,30.52,ESE,105,0.0,0.0,67,0.00,,,0.00,0.00,VWS V14.01,2013-12-08 06:16:00,
2013-12-08 01:21:00,25.6,16.2,30.52,ESE,105,0.0,0.0,67,0.00,,,0.00,0.00,VWS V14.01,2013-12-08 06:21:00,
2013-12-08 01:26:00,25.4,16.3,30.52,ESE,105,0.0,0.0,68,0.00,,,0.00,0.00,VWS V14.01,2013-12-08 06:26:00,
2013-12-08 01:30:00,25.4,16.7,30.52,ESE,105,0.0,0.0,69,0.00,,,0.00,0.00,VWS V14.01,2013-12-08 06:30:00,
2013-12-08 01:31:00,25.4,16.7,30.52,ESE,105,0.0,0.0,69,0.00,,,0.00,0.00,VWS V14.01,2013-12-08 06:31:00,
2013-12-08 01:36:00,25.3,16.9,30.52,ESE,105,0.0,1.0,70,0.00,,,0.00,0.00,VWS V14.01,2013-12-08 06:36:00,
2013-12-08 01:41:00,25.1,16.7,30.52,ESE,105,0.0,1.0,70,0.00,,,0.00,0.00,VWS V14.01,2013-12-08 06:41:00,
2013-12-08 01:45:00,25.0,16.9,30.52,ESE,105,0.0,1.0,71,0.00,,,0.00,0.00,VWS V14.01,2013-12-08 06:45:00,
2013-12-08 01:46:00,25.0,16.9,30.52,ESE,105,0.0,0.0,71,0.00,,,0.00,0.00,VWS V14.01,2013-12-08 06:46:00,
2013-12-08 01:51:00,25.0,16.9,30.52,ESE,105,0.0,0.0,71,0.00,,,0.00,0.00,VWS V14.01,2013-12-08 06:51:00,
2013-12-08 01:56:00,24.8,16.8,30.52,ESE,105,0.0,0.0,71,0.00,,,0.00,0.00,VWS V14.01,2013-12-08 06:56:00,
2013-12-08 02:00:00,24.7,17.3,30.54,ESE,105,0.0,0.0,73,0.00,,,0.00,0.00,VWS V14.01,2013-12-08 07:00:00,
2013-12-08 02:01:00,24.7,17.3,30.54,ESE,105,0.0,0.0,73,0.00,,,0.00,0.00,VWS V14.01,2013-12-08 07:01:00,
2013-12-08 02:06:00,24.5,17.4,30.54,ESE,105,0.0,0.0,74,0.00,,,0.00,0.00,VWS V14.01,2013-12-08 07:06:00,
2013-12-08 02:11:00,24.4,17.3,30.54,ESE,105,0.0,0.0,74,0.00,,,0.00,0.00,VWS V14.01,2013-12-08 07:11:00,
2013-12-08 02:15:00,24.2,17.4,30.55,ESE,105,0.0,0.0,75,0.00,,,0.00,0.00,VWS V14.01,2013-12-08 07:15:00,
2013-12-08 02:16:00,24.2,17.4,30.55,ESE,105,0.0,0.0,75,0.00,,,0.00,0.00,VWS V14.01,2013-12-08 07:16:00,
2013-12-08 02:21:00,24.1,17.3,30.55,ESE,105,0.0,0.0,75,0.00,,,0.00,0.00,VWS V14.01,2013-12-08 07:21:00,
2013-12-08 02:26:00,23.6,17.2,30.55,ESE,105,0.0,0.0,76,0.00,,,0.00,0.00,VWS V14.01,2013-12-08 07:26:00,
2013-12-08 02:30:00,23.5,17.4,30.56,ESE,105,0.0,0.0,77,0.00,,,0.00,0.00,VWS V14.01,2013-12-08 07:30:00,
2013-12-08 02:31:00,23.5,17.4,30.56,ESE,105,0.0,0.0,77,0.00,,,0.00,0.00,VWS V14.01,2013-12-08 07:31:00,
2013-12-08 02:36:00,23.3,17.5,30.56,ESE,105,0.0,0.0,78,0.00,,,0.00,0.00,VWS V14.01,2013-12-08 07:36:00,
2013-12-08 02:41:00,23.2,17.7,30.56,ESE,105,0.0,0.0,79,0.00,,,0.00,0.00,VWS V14.01,2013-12-08 07:41:00,
2013-12-08 02:45:00,23.0,17.8,30.55,ESE,105,0.0,0.0,80,0.00,,,0.00,0.00,VWS V14.01,2013-12-08 07:45:00,
2013-12-08 02:46:00,23.0,17.8,30.55,ESE,105,0.0,0.0,80,0.00,,,0.00,0.00,VWS V14.01,2013-12-08 07:46:00,
2013-12-08 02:51:00,22.9,17.7,30.55,ESE,105,0.0,0.0,80,0.00,,,0.00,0.00,VWS V14.01,2013-12-08 07:51:00,
2013-12-08 02:55:00,22.7,17.8,30.55,ESE,105,0.0,0.0,81,0.00,,,0.00,0.00,VWS V14.01,2013-12-08 07:55:00,
2013-12-08 03:00:00,22.5,17.6,30.56,ESE,105,0.0,0.0,81,0.00,,,0.00,0.00,VWS V14.01,2013-12-08 08:00:00,
2013-12-08 03:05:00,22.4,17.8,30.56,ESE,105,0.0,0.0,82,0.00,,,0.00,0.00,VWS V14.01,2013-12-08 08:05:00,
2013-12-08 03:10:00,22.2,17.5,30.56,ESE,105,0.0,0.0,82,0.00,,,0.00,0.00,VWS V14.01,2013-12-08 08:10:00,
2013-12-08 03:15:00,22.1,17.5,30.56,ESE,105,0.0,0.0,82,0.00,,,0.00,0.00,VWS V14.01,2013-12-08 08:15:00,
2013-12-08 03:20:00,22.1,17.5,30.56,ESE,105,0.0,0.0,82,0.00,,,0.00,0.00,VWS V14.01,2013-12-08 08:20:00,
2013-12-08 03:25:00,21.9,17.5,30.56,ESE,105,0.0,0.0,83,0.00,,,0.00,0.00,VWS V14.01,2013-12-08 08:25:00,
2013-12-08 03:30:00,21.8,17.4,30.57,ESE,105,0.0,0.0,83,0.00,,,0.00,0.00,VWS V14.01,2013-12-08 08:30:00,
2013-12-08 03:35:00,21.8,17.7,30.57,ESE,105,0.0,0.0,84,0.00,,,0.00,0.00,VWS V14.01,2013-12-08 08:35:00,
2013-12-08 03:40:00,21.6,17.5,30.57,ESE,105,0.0,0.0,84,0.00,,,0.00,0.00,VWS V14.01,2013-12-08 08:40:00,
2013-12-08 03:45:00,21.6,17.5,30.56,ESE,105,0.0,0.0,84,0.00,,,0.00,0.00,VWS V14.01,2013-12-08 08:45:00,
2013-12-08 03:50:00,21.4,17.3,30.56,ESE,105,0.0,0.0,84,0.00,,,0.00,0.00,VWS V14.01,2013-12-08 08:50:00,
2013-12-08 03:55:00,21.4,17.3,30.56,ESE,105,1.0,1.0,84,0.00,,,0.00,0.00,VWS V14.01,2013-12-08 08:55:00,
2013-12-08 04:00:00,21.3,17.5,30.56,ESE,105,0.0,2.0,85,0.00,,,0.00,0.00,VWS V14.01,2013-12-08 09:00:00,
2013-12-08 04:05:00,21.3,17.5,30.56,ESE,105,0.0,0.0,85,0.00,,,0.00,0.00,VWS V14.01,2013-12-08 09:05:00,
2013-12-08 04:10:00,21.4,17.6,30.56,ESE,105,0.0,0.0,85,0.00,,,0.00,0.00,VWS V14.01,2013-12-08 09:10:00,
2013-12-08 04:15:00,21.4,17.6,30.55,ESE,105,0.0,0.0,85,0.00,,,0.00,0.00,VWS V14.01,2013-12-08 09:15:00,
2013-12-08 04:20:00,21.4,17.6,30.55,ESE,105,0.0,0.0,85,0.00,,,0.00,0.00,VWS V14.01,2013-12-08 09:20:00,
2013-12-08 04:25:00,21.6,17.8,30.55,ESE,105,0.0,0.0,85,0.00,,,0.00,0.00,VWS V14.01,2013-12-08 09:25:00,
2013-12-08 04:30:00,21.8,18.0,30.56,ESE,105,0.0,0.0,85,0.00,,,0.00,0.00,VWS V14.01,2013-12-08 09:30:00,
2013-12-08 04:35:00,21.8,18.0,30.56,ESE,105,0.0,0.0,85,0.00,,,0.00,0.00,VWS V14.01,2013-12-08 09:35:00,
2013-12-08 04:40:00,21.8,18.0,30.56,ESE,105,0.0,0.0,85,0.00,,,0.00,0.00,VWS V14.01,2013-12-08 09:40:00,
2013-12-08 04:45:00,21.6,17.8,30.55,ESE,105,0.0,0.0,85,0.00,,,0.00,0.00,VWS V14.01,2013-12-08 09:45:00,
2013-12-08 04:50:00,21.6,17.8,30.55,ESE,105,0.0,0.0,85,0.00,,,0.00,0.00,VWS V14.01,2013-12-08 09:50:00,
2013-12-08 04:55:00,21.6,17.8,30.55,ESE,105,0.0,0.0,85,0.00,,,0.00,0.00,VWS V14.01,2013-12-08 09:55:00,
2013-12-08 05:00:00,21.6,17.8,30.56,ESE,105,0.0,0.0,85,0.00,,,0.00,0.00,VWS V14.01,2013-12-08 10:00:00,
2013-12-08 05:05:00,21.4,17.6,30.56,ESE,105,0.0,0.0,85,0.00,,,0.00,0.00,VWS V14.01,2013-12-08 10:05:00,
2013-12-08 05:10:00,21.4,17.6,30.56,ESE,105,0.0,0.0,85,0.00,,,0.00,0.00,VWS V14.01,2013-12-08 10:10:00,
2013-12-08 05:15:00,21.3,17.5,30.57,ESE,105,0.0,0.0,85,0.00,,,0.00,0.00,VWS V14.01,2013-12-08 10:15:00,
2013-12-08 05:20:00,21.3,17.8,30.57,ESE,105,0.0,0.0,86,0.00,,,0.00,0.00,VWS V14.01,2013-12-08 10:20:00,
2013-12-08 05:25:00,21.1,17.6,30.57,ESE,105,0.0,0.0,86,0.00,,,0.00,0.00,VWS V14.01,2013-12-08 10:25:00,
2013-12-08 05:30:00,21.1,17.3,30.57,ESE,105,0.0,1.0,85,0.00,,,0.00,0.00,VWS V14.01,2013-12-08 10:30:00,
2013-12-08 05:35:00,21.3,17.2,30.57,ESE,105,0.0,2.0,84,0.00,,,0.00,0.00,VWS V14.01,2013-12-08 10:35:00,
2013-12-08 05:40:00,21.4,17.0,30.57,ENE,74,0.0,3.0,83,0.00,,,0.00,0.00,VWS V14.01,2013-12-08 10:40:00,
2013-12-08 05:45:00,21.6,16.7,30.57,ENE,74,0.0,3.0,81,0.00,,,0.00,0.00,VWS V14.01,2013-12-08 10:45:00,
2013-12-08 05:50:00,21.9,17.0,30.57,ENE,74,0.0,0.0,81,0.00,,,0.00,0.00,VWS V14.01,2013-12-08 10:50:00,
2013-12-08 05:55:00,22.1,16.3,30.57,East,95,1.0,4.0,78,0.00,,,0.00,0.00,VWS V14.01,2013-12-08 10:55:00,
2013-12-08 06:00:00,22.2,16.1,30.57,East,95,2.0,4.0,77,0.00,,,0.00,0.00,VWS V14.01,2013-12-08 11:00:00,
2013-12-08 06:05:00,22.5,15.8,30.57,East,95,0.0,1.0,75,0.00,,,0.00,0.00,VWS V14.01,2013-12-08 11:05:00,
2013-12-08 06:10:00,22.7,16.0,30.57,NE,54,2.0,6.0,75,0.00,,,0.00,0.00,VWS V14.01,2013-12-08 11:10:00,
2013-12-08 06:15:00,22.9,15.6,30.57,NE,55,4.0,6.0,73,0.00,,,0.00,0.00,VWS V14.01,2013-12-08 11:15:00,
2013-12-08 06:20:00,23.0,15.3,30.57,NE,55,0.0,4.0,72,0.00,,,0.00,0.00,VWS V14.01,2013-12-08 11:20:00,
2013-12-08 06:25:00,23.2,15.5,30.57,NNW,344,4.0,4.0,72,0.00,,,0.00,0.00,VWS V14.01,2013-12-08 11:25:00,
2013-12-08 06:30:00,23.2,15.2,30.58,NNW,348,0.0,4.0,71,0.00,,,0.00,0.00,VWS V14.01,2013-12-08 11:30:00,
2013-12-08 06:35:00,23.3,15.3,30.58,NE,42,5.0,6.0,71,0.00,,,0.00,0.00,VWS V14.01,2013-12-08 11:35:00,
2013-12-08 06:40:00,23.5,15.2,30.58,North,9,0.0,6.0,70,0.00,,,0.00,0.00,VWS V14.01,2013-12-08 11:40:00,
2013-12-08 06:45:00,23.5,14.8,30.57,NE,53,4.0,8.0,69,0.00,,,0.00,0.00,VWS V14.01,2013-12-08 11:45:00,
2013-12-08 06:50:00,23.6,14.9,30.57,ENE,75,5.0,5.0,69,0.00,,,0.00,0.00,VWS V14.01,2013-12-08 11:50:00,
2013-12-08 06:55:00,23.8,14.8,30.57,ESE,105,2.0,5.0,68,0.00,,,0.00,0.00,VWS V14.01,2013-12-08 11:55:00,
2013-12-08 07:00:00,23.8,14.8,30.57,East,81,0.0,5.0,68,0.00,,,0.00,0.00,VWS V14.01,2013-12-08 12:00:00,
2013-12-08 07:05:00,23.8,14.8,30.57,East,82,3.0,5.0,68,0.00,,,0.00,0.00,VWS V14.01,2013-12-08 12:05:00,
2013-12-08 07:10:00,23.8,14.8,30.57,East,82,2.0,5.0,68,0.00,,,0.00,0.00,VWS V14.01,2013-12-08 12:10:00,
2013-12-08 07:15:00,23.8,14.5,30.59,East,82,0.0,5.0,67,0.00,,,0.00,5.00,VWS V14.01,2013-12-08 12:15:00,
2013-12-08 07:20:00,23.8,14.5,30.59,East,82,0.0,5.0,67,0.00,,,0.00,5.00,VWS V14.01,2013-12-08 12:20:00,
2013-12-08 07:25:00,23.8,14.5,30.59,East,82,1.0,5.0,67,0.00,,,0.00,5.00,VWS V14.01,2013-12-08 12:25:00,
2013-12-08 07:30:00,23.9,14.6,30.59,East,83,0.0,0.0,67,0.00,,,0.00,7.00,VWS V14.01,2013-12-08 12:30:00,
2013-12-08 07:31:00,23.9,14.6,30.59,East,83,0.0,0.0,67,0.00,,,0.00,7.00,VWS V14.01,2013-12-08 12:31:00,
2013-12-08 07:36:00,23.9,14.9,30.59,East,83,0.0,2.0,68,0.00,,,0.00,9.00,VWS V14.01,2013-12-08 12:36:00,
2013-12-08 07:41:00,23.9,14.6,30.59,ENE,78,0.0,3.0,67,0.00,,,0.00,9.00,VWS V14.01,2013-12-08 12:41:00,
2013-12-08 07:45:00,23.9,14.6,30.59,ENE,78,0.0,3.0,67,0.00,,,0.00,12.00,VWS V14.01,2013-12-08 12:45:00,
2013-12-08 08:09:00,24.1,14.7,30.61,ENE,78,2.0,2.0,67,0.00,,,0.00,26.00,VWS V14.01,2013-12-08 13:09:00,
2013-12-08 08:14:00,24.2,14.5,30.61,ENE,78,0.0,5.0,66,0.00,,,0.00,40.00,VWS V14.01,2013-12-08 13:14:00,
2013-12-08 08:15:00,24.2,14.5,30.60,ENE,78,0.0,5.0,66,0.00,,,0.00,46.00,VWS V14.01,2013-12-08 13:15:00,
2013-12-08 08:18:00,24.2,14.8,30.60,ENE,78,0.0,0.0,67,0.00,,,0.00,51.00,VWS V14.01,2013-12-08 13:18:00,
2013-12-08 08:23:00,24.2,14.8,30.60,ENE,78,1.0,1.0,67,0.00,,,0.00,62.00,VWS V14.01,2013-12-08 13:23:00,
2013-12-08 08:28:00,24.4,15.0,30.60,ENE,78,0.0,1.0,67,0.00,,,0.00,65.00,VWS V14.01,2013-12-08 13:28:00,
2013-12-08 08:30:00,24.5,15.5,30.60,ENE,78,0.0,1.0,68,0.00,,,0.00,65.00,VWS V14.01,2013-12-08 13:30:00,
2013-12-08 08:33:00,24.5,15.1,30.60,ENE,78,1.0,2.0,67,0.00,,,0.00,58.00,VWS V14.01,2013-12-08 13:33:00,
2013-12-08 08:38:00,24.8,15.4,30.60,ENE,78,0.0,2.0,67,0.00,,,0.00,54.00,VWS V14.01,2013-12-08 13:38:00,
2013-12-08 08:43:00,24.8,15.1,30.60,ENE,78,0.0,2.0,66,0.00,,,0.00,49.00,VWS V14.01,2013-12-08 13:43:00,
2013-12-08 08:45:00,24.8,15.1,30.59,ENE,78,0.0,2.0,66,0.00,,,0.00,53.00,VWS V14.01,2013-12-08 13:45:00,
2013-12-08 08:48:00,25.0,15.3,30.59,ENE,74,0.0,5.0,66,0.00,,,0.00,56.00,VWS V14.01,2013-12-08 13:48:00,
2013-12-08 08:53:00,25.0,14.9,30.59,ENE,65,1.0,5.0,65,0.00,,,0.00,60.00,VWS V14.01,2013-12-08 13:53:00,
2013-12-08 08:58:00,25.0,14.9,30.59,ENE,78,4.0,5.0,65,0.00,,,0.00,88.00,VWS V14.01,2013-12-08 13:58:00,
2013-12-08 09:00:00,25.0,14.9,30.59,ENE,68,5.0,6.0,65,0.00,,,0.00,95.00,VWS V14.01,2013-12-08 14:00:00,
2013-12-08 09:03:00,25.0,14.9,30.59,ENE,76,4.0,6.0,65,0.00,,,0.00,100.00,VWS V14.01,2013-12-08 14:03:00,
2013-12-08 09:08:00,25.1,15.4,30.59,ENE,63,5.0,8.0,66,0.00,,,0.00,98.00,VWS V14.01,2013-12-08 14:08:00,
2013-12-08 09:13:00,25.1,15.0,30.59,ENE,74,1.0,8.0,65,0.00,,,0.00,81.00,VWS V14.01,2013-12-08 14:13:00,
2013-12-08 09:15:00,25.3,15.6,30.59,ENE,60,6.0,8.0,66,0.00,,,0.00,76.00,VWS V14.01,2013-12-08 14:15:00,
2013-12-08 09:18:00,25.3,15.2,30.59,NE,56,2.0,6.0,65,0.00,,,0.00,76.00,VWS V14.01,2013-12-08 14:18:00,
2013-12-08 09:23:00,25.3,15.2,30.59,ENE,67,0.0,6.0,65,0.00,,,0.00,104.00,VWS V14.01,2013-12-08 14:23:00,
2013-12-08 09:28:00,25.3,15.2,30.59,NE,54,0.0,8.0,65,0.00,,,0.00,79.00,VWS V14.01,2013-12-08 14:28:00,
2013-12-08 09:30:00,25.4,15.3,30.59,ENE,57,4.0,8.0,65,0.00,,,0.00,70.00,VWS V14.01,2013-12-08 14:30:00,
2013-12-08 09:35:00,25.4,15.3,30.59,ENE,63,1.0,1.0,65,0.00,,,0.00,69.00,VWS V14.01,2013-12-08 14:35:00,
2013-12-08 09:40:00,25.4,15.6,30.59,ENE,63,0.0,4.0,66,0.00,,,0.00,54.00,VWS V14.01,2013-12-08 14:40:00,
2013-12-08 09:45:00,25.6,15.8,30.60,ENE,63,0.0,4.0,66,0.00,,,0.00,58.00,VWS V14.01,2013-12-08 14:45:00,
2013-12-08 09:50:00,25.7,16.3,30.60,East,79,2.0,4.0,67,0.00,,,0.00,63.00,VWS V14.01,2013-12-08 14:50:00,
2013-12-08 09:55:00,25.8,16.4,30.60,East,79,0.0,0.0,67,0.00,,,0.00,70.00,VWS V14.01,2013-12-08 14:55:00,
2013-12-08 10:00:00,25.8,16.4,30.60,East,79,0.0,4.0,67,0.00,,,0.00,72.00,VWS V14.01,2013-12-08 15:00:00,
2013-12-08 10:05:00,26.0,16.6,30.60,East,79,0.0,3.0,67,0.00,,,0.00,77.00,VWS V14.01,2013-12-08 15:05:00,
2013-12-08 10:10:00,26.1,16.3,30.60,East,79,4.0,5.0,66,0.00,,,0.00,77.00,VWS V14.01,2013-12-08 15:10:00,
2013-12-08 10:15:00,26.1,16.3,30.60,ENE,60,0.0,6.0,66,0.00,,,0.00,76.00,VWS V14.01,2013-12-08 15:15:00,
2013-12-08 10:20:00,26.1,16.3,30.60,ENE,60,0.0,2.0,66,0.00,,,0.00,81.00,VWS V14.01,2013-12-08 15:20:00,
2013-12-08 10:25:00,26.3,16.5,30.60,ENE,60,0.0,2.0,66,0.00,,,0.00,84.00,VWS V14.01,2013-12-08 15:25:00,
2013-12-08 10:30:00,26.4,16.2,30.59,ENE,60,1.0,4.0,65,0.00,,,0.00,95.00,VWS V14.01,2013-12-08 15:30:00,
2013-12-08 10:35:00,26.4,16.2,30.59,ENE,75,2.0,5.0,65,0.00,,,0.00,104.00,VWS V14.01,2013-12-08 15:35:00,
2013-12-08 10:40:00,26.4,16.2,30.59,NE,53,2.0,6.0,65,0.00,,,0.00,100.00,VWS V14.01,2013-12-08 15:40:00,
2013-12-08 10:45:00,26.6,16.1,30.59,NE,52,1.0,6.0,64,0.00,,,0.00,102.00,VWS V14.01,2013-12-08 15:45:00,
2013-12-08 10:50:00,26.6,16.1,30.59,ENE,66,4.0,6.0,64,0.00,,,0.00,113.00,VWS V14.01,2013-12-08 15:50:00,
2013-12-08 10:55:00,26.7,16.5,30.59,ENE,65,1.0,6.0,65,0.00,,,0.00,114.00,VWS V14.01,2013-12-08 15:55:00,
2013-12-08 11:00:00,26.9,16.7,30.58,ENE,76,4.0,6.0,65,0.00,,,0.00,100.00,VWS V14.01,2013-12-08 16:00:00,
2013-12-08 11:05:00,26.9,16.7,30.58,NE,53,2.0,6.0,65,0.00,,,0.00,91.00,VWS V14.01,2013-12-08 16:05:00,
2013-12-08 11:10:00,26.7,16.2,30.58,NE,53,2.0,6.0,64,0.00,,,0.00,86.00,VWS V14.01,2013-12-08 16:10:00,
2013-12-08 11:15:00,26.9,16.7,30.58,NE,53,1.0,6.0,65,0.00,,,0.00,72.00,VWS V14.01,2013-12-08 16:15:00,
2013-12-08 11:20:00,26.9,16.7,30.58,NE,53,2.0,5.0,65,0.00,,,0.00,70.00,VWS V14.01,2013-12-08 16:20:00,
2013-12-08 11:25:00,26.9,17.1,30.58,NE,54,2.0,5.0,66,0.00,,,0.00,70.00,VWS V14.01,2013-12-08 16:25:00,
2013-12-08 11:30:00,26.9,16.7,30.57,ENE,68,2.0,6.0,65,0.00,,,0.00,77.00,VWS V14.01,2013-12-08 16:30:00,
2013-12-08 11:35:00,26.7,16.2,30.57,ENE,76,0.0,5.0,64,0.00,,,0.00,81.00,VWS V14.01,2013-12-08 16:35:00,
2013-12-08 11:40:00,26.9,16.7,30.57,ENE,76,0.0,5.0,65,0.00,,,0.00,91.00,VWS V14.01,2013-12-08 16:40:00,
2013-12-08 11:45:00,27.0,16.8,30.57,ENE,73,3.0,5.0,65,0.00,,,0.00,79.00,VWS V14.01,2013-12-08 16:45:00,
2013-12-08 11:50:00,27.0,16.8,30.57,NE,56,0.0,4.0,65,0.00,,,0.00,65.00,VWS V14.01,2013-12-08 16:50:00,
2013-12-08 11:55:00,27.0,16.8,30.57,NE,56,0.0,4.0,65,0.00,,,0.00,67.00,VWS V14.01,2013-12-08 16:55:00,
2013-12-08 12:00:00,27.0,16.8,30.55,NE,56,0.0,4.0,65,0.00,,,0.00,69.00,VWS V14.01,2013-12-08 17:00:00,
2013-12-08 12:05:00,27.0,16.8,30.55,NE,56,0.0,4.0,65,0.00,,,0.00,77.00,VWS V14.01,2013-12-08 17:05:00,
2013-12-08 12:10:00,27.2,17.4,30.55,NE,56,2.0,4.0,66,0.00,,,0.00,98.00,VWS V14.01,2013-12-08 17:10:00,
2013-12-08 12:15:00,27.2,17.4,30.55,NE,56,0.0,4.0,66,0.00,,,0.00,113.00,VWS V14.01,2013-12-08 17:15:00,
2013-12-08 12:20:00,27.3,17.1,30.55,NE,55,3.0,5.0,65,0.00,,,0.00,100.00,VWS V14.01,2013-12-08 17:20:00,
2013-12-08 12:25:00,27.3,17.1,30.55,NE,55,0.0,5.0,65,0.00,,,0.00,76.00,VWS V14.01,2013-12-08 17:25:00,
2013-12-08 12:30:00,27.5,17.3,30.56,NE,55,0.0,5.0,65,0.00,,,0.00,74.00,VWS V14.01,2013-12-08 17:30:00,
2013-12-08 12:35:00,27.8,17.6,30.56,NE,55,0.0,0.0,65,0.00,,,0.00,79.00,VWS V14.01,2013-12-08 17:35:00,
2013-12-08 12:40:00,27.8,17.6,30.56,NE,55,5.0,5.0,65,0.00,,,0.00,69.00,VWS V14.01,2013-12-08 17:40:00,
2013-12-08 12:45:00,27.6,17.4,30.56,NNE,15,0.0,6.0,65,0.00,,,0.00,60.00,VWS V14.01,2013-12-08 17:45:00,
2013-12-08 12:50:00,27.8,17.9,30.56,NNE,15,2.0,2.0,66,0.00,,,0.00,60.00,VWS V14.01,2013-12-08 17:50:00,
2013-12-08 12:55:00,27.6,17.4,30.56,NNE,15,0.0,2.0,65,0.00,,,0.00,62.00,VWS V14.01,2013-12-08 17:55:00,
2013-12-08 13:00:00,27.6,17.4,30.54,NNE,15,0.0,2.0,65,0.00,,,0.00,74.00,VWS V14.01,2013-12-08 18:00:00,
2013-12-08 13:05:00,27.8,17.6,30.54,NNE,15,0.0,2.0,65,0.00,,,0.00,88.00,VWS V14.01,2013-12-08 18:05:00,
2013-12-08 13:10:00,27.9,17.7,30.54,NNE,15,0.0,2.0,65,0.00,,,0.00,107.00,VWS V14.01,2013-12-08 18:10:00,
2013-12-08 13:15:00,27.9,17.7,30.54,NNE,15,0.0,3.0,65,0.00,,,0.00,105.00,VWS V14.01,2013-12-08 18:15:00,
2013-12-08 13:20:00,28.1,17.9,30.54,NNE,15,0.0,1.0,65,0.00,,,0.00,93.00,VWS V14.01,2013-12-08 18:20:00,
2013-12-08 13:25:00,27.9,17.3,30.54,NNE,15,2.0,4.0,64,0.00,,,0.00,91.00,VWS V14.01,2013-12-08 18:25:00,
2013-12-08 13:30:00,28.1,17.9,30.53,NNE,15,0.0,4.0,65,0.00,,,0.00,88.00,VWS V14.01,2013-12-08 18:30:00,
2013-12-08 13:35:00,28.2,18.0,30.53,NNE,15,0.0,0.0,65,0.00,,,0.00,104.00,VWS V14.01,2013-12-08 18:35:00,
2013-12-08 13:40:00,28.2,17.6,30.53,NNE,15,0.0,0.0,64,0.00,,,0.00,90.00,VWS V14.01,2013-12-08 18:40:00,
2013-12-08 13:45:00,28.4,18.1,30.52,NNE,15,0.0,0.0,65,0.00,,,0.00,95.00,VWS V14.01,2013-12-08 18:45:00,
2013-12-08 13:50:00,28.5,17.9,30.52,NNE,15,0.0,0.0,64,0.00,,,0.00,104.00,VWS V14.01,2013-12-08 18:50:00,
2013-12-08 13:55:00,28.5,17.9,30.52,NNE,15,0.0,0.0,64,0.00,,,0.00,84.00,VWS V14.01,2013-12-08 18:55:00,
2013-12-08 14:00:00,28.7,18.1,30.52,NNE,15,0.0,0.0,64,0.00,,,0.00,74.00,VWS V14.01,2013-12-08 19:00:00,
2013-12-08 14:05:00,28.7,18.1,30.52,NNE,15,0.0,0.0,64,0.00,,,0.00,62.00,VWS V14.01,2013-12-08 19:05:00,
2013-12-08 14:10:00,28.8,18.2,30.52,NNE,15,0.0,0.0,64,0.00,,,0.00,47.00,VWS V14.01,2013-12-08 19:10:00,
2013-12-08 14:15:00,29.1,18.5,30.51,NNE,15,0.0,0.0,64,0.00,,,0.00,40.00,VWS V14.01,2013-12-08 19:15:00,
2013-12-08 14:20:00,29.1,18.5,30.51,NNE,15,0.0,0.0,64,0.00,,,0.00,39.00,VWS V14.01,2013-12-08 19:20:00,
2013-12-08 14:25:00,29.1,18.5,30.51,NNE,15,0.0,0.0,64,0.00,,,0.00,58.00,VWS V14.01,2013-12-08 19:25:00,
2013-12-08 14:30:00,29.3,18.6,30.51,NNE,15,0.0,0.0,64,0.00,,,0.00,56.00,VWS V14.01,2013-12-08 19:30:00,
2013-12-08 14:35:00,29.3,18.6,30.51,NNE,15,1.0,4.0,64,0.00,,,0.00,39.00,VWS V14.01,2013-12-08 19:35:00,
2013-12-08 14:40:00,29.1,18.8,30.51,West,272,2.0,5.0,65,0.00,,,0.00,26.00,VWS V14.01,2013-12-08 19:40:00,
2013-12-08 14:45:00,29.0,19.1,30.51,NNW,331,4.0,5.0,66,0.00,,,0.00,25.00,VWS V14.01,2013-12-08 19:45:00,
2013-12-08 14:53:00,28.8,18.2,30.51,NNW,333,0.0,0.0,64,0.00,,,0.00,25.00,VWS V14.01,2013-12-08 19:53:00,
2013-12-08 14:58:00,29.0,18.0,30.51,NE,46,2.0,5.0,63,0.00,,,0.00,28.00,VWS V14.01,2013-12-08 19:58:00,
2013-12-08 15:03:00,29.1,18.1,30.52,NE,46,0.0,0.0,63,0.00,,,0.00,21.00,VWS V14.01,2013-12-08 20:03:00,
2013-12-08 15:08:00,29.1,18.1,30.52,NE,46,0.0,5.0,63,0.00,,,0.00,25.00,VWS V14.01,2013-12-08 20:08:00,
2013-12-08 15:13:00,29.1,18.1,30.52,ESE,103,0.0,5.0,63,0.00,,,0.00,25.00,VWS V14.01,2013-12-08 20:13:00,
2013-12-08 15:18:00,29.1,18.5,30.52,ESE,102,0.0,4.0,64,0.00,,,0.00,21.00,VWS V14.01,2013-12-08 20:18:00,
2013-12-08 15:23:00,29.0,18.4,30.52,ESE,103,0.0,6.0,64,0.00,,,0.00,23.00,VWS V14.01,2013-12-08 20:23:00,
2013-12-08 15:28:00,28.8,18.9,30.52,East,83,2.0,6.0,66,0.00,,,0.00,19.00,VWS V14.01,2013-12-08 20:28:00,
2013-12-08 15:33:00,28.8,19.6,30.52,ENE,76,2.0,4.0,68,0.00,,,0.00,14.00,VWS V14.01,2013-12-08 20:33:00,
2013-12-08 15:38:00,28.5,19.6,30.52,NE,51,5.0,6.0,69,0.00,,,0.00,12.00,VWS V14.01,2013-12-08 20:38:00,
2013-12-08 15:43:00,28.2,20.0,30.52,NE,51,2.0,7.0,71,0.00,,,0.00,9.00,VWS V14.01,2013-12-08 20:43:00,
2013-12-08 15:48:00,28.1,20.2,30.53,NE,51,0.0,4.0,72,0.00,,,0.00,11.00,VWS V14.01,2013-12-08 20:48:00,
2013-12-08 15:53:00,27.9,20.7,30.53,NE,51,1.0,4.0,74,0.00,,,0.00,0.00,VWS V14.01,2013-12-08 20:53:00,
2013-12-08 15:58:00,27.8,20.9,30.53,NE,51,1.0,5.0,75,0.00,,,0.00,0.00,VWS V14.01,2013-12-08 20:58:00,
2013-12-08 16:03:00,27.6,21.0,30.53,NE,51,0.0,0.0,76,0.00,,,0.00,5.00,VWS V14.01,2013-12-08 21:03:00,
2013-12-08 16:08:00,27.6,21.4,30.53,NE,51,0.0,2.0,77,0.00,,,0.00,0.00,VWS V14.01,2013-12-08 21:08:00,
2013-12-08 16:13:00,27.3,21.4,30.53,NE,54,4.0,5.0,78,0.00,,,0.00,0.00,VWS V14.01,2013-12-08 21:13:00,
2013-12-08 16:18:00,27.2,21.6,30.53,NE,54,2.0,2.0,79,0.00,,,0.00,0.00,VWS V14.01,2013-12-08 21:18:00,
2013-12-08 16:23:00,27.0,22.0,30.53,NE,54,1.0,4.0,81,0.00,,,0.00,0.00,VWS V14.01,2013-12-08 21:23:00,
2013-12-08 16:28:00,26.9,22.1,30.53,NE,54,0.0,4.0,82,0.00,,,0.00,0.00,VWS V14.01,2013-12-08 21:28:00,
2013-12-08 16:33:00,26.7,22.2,30.52,NE,54,3.0,3.0,83,0.00,,,0.00,0.00,VWS V14.01,2013-12-08 21:33:00,
2013-12-08 16:38:00,26.6,22.4,30.52,NE,54,0.0,3.0,84,0.00,,,0.00,0.00,VWS V14.01,2013-12-08 21:38:00,
2013-12-08 16:43:00,26.4,22.5,30.52,NE,54,0.0,3.0,85,0.01,,,0.01,0.00,VWS V14.01,2013-12-08 21:43:00,
2013-12-08 16:48:00,26.3,22.4,30.52,NE,54,0.0,0.0,85,0.01,,,0.01,0.00,VWS V14.01,2013-12-08 21:48:00,
2013-12-08 16:53:00,26.3,22.7,30.52,NE,54,0.0,0.0,86,0.01,,,0.01,0.00,VWS V14.01,2013-12-08 21:53:00,
2013-12-08 16:58:00,26.1,22.5,30.52,NE,54,0.0,0.0,86,0.01,,,0.01,0.00,VWS V14.01,2013-12-08 21:58:00,
2013-12-08 17:03:00,26.1,22.8,30.52,NE,54,0.0,0.0,87,0.01,,,0.01,0.00,VWS V14.01,2013-12-08 22:03:00,
2013-12-08 17:08:00,26.1,22.8,30.52,NE,54,0.0,0.0,87,0.01,,,0.01,0.00,VWS V14.01,2013-12-08 22:08:00,
2013-12-08 17:13:00,26.0,22.9,30.52,NE,54,0.0,0.0,88,0.01,,,0.01,0.00,VWS V14.01,2013-12-08 22:13:00,
2013-12-08 17:17:00,26.0,22.9,30.52,NE,54,0.0,0.0,88,0.02,,,0.02,0.00,VWS V14.01,2013-12-08 22:17:00,
2013-12-08 17:22:00,26.0,22.9,30.52,NE,54,2.0,2.0,88,0.02,,,0.02,0.00,VWS V14.01,2013-12-08 22:22:00,
2013-12-08 17:27:00,25.8,23.0,30.52,NE,54,0.0,2.0,89,0.02,,,0.02,0.00,VWS V14.01,2013-12-08 22:27:00,
2013-12-08 17:32:00,25.8,23.0,30.51,NE,54,0.0,0.0,89,0.02,,,0.02,0.00,VWS V14.01,2013-12-08 22:32:00,
2013-12-08 17:37:00,25.8,23.0,30.51,NE,54,0.0,0.0,89,0.02,,,0.02,0.00,VWS V14.01,2013-12-08 22:37:00,
2013-12-08 17:42:00,25.8,23.0,30.51,NE,54,0.0,2.0,89,0.02,,,0.02,0.00,VWS V14.01,2013-12-08 22:42:00,
2013-12-08 17:47:00,25.8,23.3,30.51,NE,54,0.0,0.0,90,0.01,,,0.02,0.00,VWS V14.01,2013-12-08 22:47:00,
2013-12-08 17:52:00,25.8,23.3,30.51,NE,54,0.0,0.0,90,0.01,,,0.02,0.00,VWS V14.01,2013-12-08 22:52:00,
2013-12-08 17:57:00,25.8,23.3,30.51,NE,54,0.0,0.0,90,0.01,,,0.02,0.00,VWS V14.01,2013-12-08 22:57:00,
2013-12-08 18:02:00,25.8,23.3,30.51,NE,54,0.0,1.0,90,0.01,,,0.02,0.00,VWS V14.01,2013-12-08 23:02:00,
2013-12-08 18:07:00,25.8,23.3,30.51,NE,54,2.0,4.0,90,0.01,,,0.02,0.00,VWS V14.01,2013-12-08 23:07:00,
2013-12-08 18:12:00,25.8,23.3,30.51,NE,54,0.0,4.0,90,0.01,,,0.02,0.00,VWS V14.01,2013-12-08 23:12:00,
2013-12-08 18:17:00,25.8,23.0,30.51,NE,54,1.0,4.0,89,0.00,,,0.02,0.00,VWS V14.01,2013-12-08 23:17:00,
2013-12-08 18:22:00,25.8,23.0,30.51,NE,54,0.0,4.0,89,0.00,,,0.02,0.00,VWS V14.01,2013-12-08 23:22:00,
2013-12-08 18:27:00,25.8,23.0,30.51,NE,54,0.0,4.0,89,0.00,,,0.02,0.00,VWS V14.01,2013-12-08 23:27:00,
2013-12-08 18:32:00,26.0,23.2,30.51,NE,54,0.0,0.0,89,0.00,,,0.02,0.00,VWS V14.01,2013-12-08 23:32:00,
2013-12-08 18:37:00,25.8,23.0,30.51,East,79,0.0,5.0,89,0.00,,,0.02,0.00,VWS V14.01,2013-12-08 23:37:00,
2013-12-08 18:42:00,26.0,23.2,30.51,East,82,4.0,6.0,89,0.00,,,0.02,0.00,VWS V14.01,2013-12-08 23:42:00,
2013-12-08 18:47:00,25.8,23.0,30.50,East,82,1.0,2.0,89,0.00,,,0.02,0.00,VWS V14.01,2013-12-08 23:47:00,
2013-12-08 18:52:00,26.0,23.2,30.50,East,82,0.0,2.0,89,0.00,,,0.02,0.00,VWS V14.01,2013-12-08 23:52:00,
2013-12-08 18:57:00,26.0,23.2,30.50,East,82,0.0,2.0,89,0.00,,,0.02,0.00,VWS V14.01,2013-12-08 23:57:00,
2013-12-08 19:02:00,26.0,23.2,30.51,ENE,59,2.0,5.0,89,0.00,,,0.02,0.00,VWS V14.01,2013-12-09 00:02:00,
2013-12-08 19:07:00,26.0,23.2,30.51,ENE,59,0.0,5.0,89,0.00,,,0.02,0.00,VWS V14.01,2013-12-09 00:07:00,
2013-12-08 19:12:00,26.0,23.2,30.51,ENE,59,0.0,5.0,89,0.00,,,0.02,0.00,VWS V14.01,2013-12-09 00:12:00,
2013-12-08 19:17:00,26.0,23.2,30.50,ENE,59,0.0,2.0,89,0.00,,,0.02,0.00,VWS V14.01,2013-12-09 00:17:00,
2013-12-08 19:22:00,26.1,23.3,30.50,ENE,59,0.0,2.0,89,0.00,,,0.02,0.00,VWS V14.01,2013-12-09 00:22:00,
2013-12-08 19:27:00,26.1,23.3,30.50,ENE,59,2.0,4.0,89,0.00,,,0.02,0.00,VWS V14.01,2013-12-09 00:27:00,
2013-12-08 19:32:00,26.1,23.3,30.50,ENE,59,0.0,0.0,89,0.00,,,0.02,0.00,VWS V14.01,2013-12-09 00:32:00,
2013-12-08 19:37:00,26.1,23.3,30.50,ENE,59,0.0,0.0,89,0.00,,,0.02,0.00,VWS V14.01,2013-12-09 00:37:00,
2013-12-08 19:42:00,26.1,23.0,30.50,NE,53,4.0,5.0,88,0.00,,,0.02,0.00,VWS V14.01,2013-12-09 00:42:00,
2013-12-08 19:47:00,26.1,23.0,30.49,ENE,59,0.0,2.0,88,0.00,,,0.02,0.00,VWS V14.01,2013-12-09 00:47:00,
2013-12-08 19:52:00,26.1,23.3,30.49,ENE,59,0.0,2.0,89,0.00,,,0.02,0.00,VWS V14.01,2013-12-09 00:52:00,
2013-12-08 19:57:00,26.1,23.3,30.49,ENE,59,0.0,2.0,89,0.00,,,0.02,0.00,VWS V14.01,2013-12-09 00:57:00,
2013-12-08 20:02:00,26.3,23.5,30.50,ENE,59,0.0,0.0,89,0.00,,,0.02,0.00,VWS V14.01,2013-12-09 01:02:00,
2013-12-08 20:07:00,26.1,23.3,30.50,ENE,59,1.0,3.0,89,0.00,,,0.02,0.00,VWS V14.01,2013-12-09 01:07:00,
2013-12-08 20:12:00,26.3,23.5,30.50,NE,45,5.0,5.0,89,0.00,,,0.02,0.00,VWS V14.01,2013-12-09 01:12:00,
2013-12-08 20:17:00,26.1,23.0,30.48,East,86,4.0,4.0,88,0.00,,,0.02,0.00,VWS V14.01,2013-12-09 01:17:00,
2013-12-08 20:22:00,26.1,23.0,30.48,East,82,0.0,6.0,88,0.00,,,0.02,0.00,VWS V14.01,2013-12-09 01:22:00,
2013-12-08 20:27:00,26.1,23.0,30.48,ENE,78,3.0,6.0,88,0.00,,,0.02,0.00,VWS V14.01,2013-12-09 01:27:00,
2013-12-08 20:32:00,26.1,23.0,30.44,NE,56,5.0,6.0,88,0.00,,,0.02,0.00,VWS V14.01,2013-12-09 01:32:00,
2013-12-08 20:37:00,26.0,22.9,30.44,NE,35,0.0,8.0,88,0.00,,,0.02,0.00,VWS V14.01,2013-12-09 01:37:00,
2013-12-08 20:42:00,26.1,23.0,30.44,NE,40,4.0,8.0,88,0.00,,,0.02,0.00,VWS V14.01,2013-12-09 01:42:00,
2013-12-08 20:47:00,26.0,22.9,30.45,NE,49,5.0,6.0,88,0.00,,,0.02,0.00,VWS V14.01,2013-12-09 01:47:00,
2013-12-08 20:52:00,26.0,22.9,30.45,NE,49,2.0,6.0,88,0.00,,,0.02,0.00,VWS V14.01,2013-12-09 01:52:00,
2013-12-08 20:57:00,26.1,23.0,30.45,ENE,58,2.0,6.0,88,0.00,,,0.02,0.00,VWS V14.01,2013-12-09 01:57:00,
2013-12-08 21:02:00,26.1,23.0,30.44,ENE,65,4.0,4.0,88,0.00,,,0.02,0.00,VWS V14.01,2013-12-09 02:02:00,
2013-12-08 21:07:00,26.1,23.0,30.44,ENE,65,2.0,5.0,88,0.00,,,0.02,0.00,VWS V14.01,2013-12-09 02:07:00,
2013-12-08 21:12:00,26.1,23.0,30.44,NE,42,4.0,8.0,88,0.00,,,0.02,0.00,VWS V14.01,2013-12-09 02:12:00,
2013-12-08 21:17:00,26.1,23.0,30.42,NE,54,6.0,6.0,88,0.00,,,0.02,0.00,VWS V14.01,2013-12-09 02:17:00,
2013-12-08 21:22:00,26.3,23.2,30.42,ENE,59,3.0,6.0,88,0.00,,,0.02,0.00,VWS V14.01,2013-12-09 02:22:00,
2013-12-08 21:27:00,26.3,23.2,30.42,NE,50,2.0,6.0,88,0.00,,,0.02,0.00,VWS V14.01,2013-12-09 02:27:00,
2013-12-08 21:32:00,26.3,23.2,30.42,NE,48,2.0,5.0,88,0.00,,,0.02,0.00,VWS V14.01,2013-12-09 02:32:00,
2013-12-08 21:37:00,26.4,23.3,30.42,NE,48,0.0,5.0,88,0.00,,,0.02,0.00,VWS V14.01,2013-12-09 02:37:00,
2013-12-08 21:42:00,26.4,23.6,30.42,NE,55,4.0,6.0,89,0.00,,,0.02,0.00,VWS V14.01,2013-12-09 02:42:00,
2013-12-08 21:47:00,26.4,23.6,30.41,NE,55,6.0,6.0,89,0.00,,,0.02,0.00,VWS V14.01,2013-12-09 02:47:00,
2013-12-08 21:52:00,26.3,23.5,30.41,NE,55,2.0,6.0,89,0.00,,,0.02,0.00,VWS V14.01,2013-12-09 02:52:00,
2013-12-08 21:57:00,26.4,23.9,30.41,NE,38,4.0,7.0,90,0.00,,,0.02,0.00,VWS V14.01,2013-12-09 02:57:00,
2013-12-08 22:02:00,26.3,23.8,30.40,NE,37,5.0,7.0,90,0.00,,,0.02,0.00,VWS V14.01,2013-12-09 03:02:00,
2013-12-08 22:07:00,26.4,23.9,30.40,NE,38,0.0,7.0,90,0.00,,,0.02,0.00,VWS V14.01,2013-12-09 03:07:00,
2013-12-08 22:12:00,26.6,24.3,30.40,NE,38,0.0,7.0,91,0.00,,,0.02,0.00,VWS V14.01,2013-12-09 03:12:00,
2013-12-08 22:17:00,26.7,24.4,30.41,NE,44,0.0,2.0,91,0.00,,,0.02,0.00,VWS V14.01,2013-12-09 03:17:00,
2013-12-08 22:22:00,26.7,24.4,30.41,NE,44,0.0,2.0,91,0.00,,,0.02,0.00,VWS V14.01,2013-12-09 03:22:00,
2013-12-08 22:27:00,26.9,24.9,30.41,NE,44,0.0,4.0,92,0.00,,,0.02,0.00,VWS V14.01,2013-12-09 03:27:00,
2013-12-08 22:32:00,26.9,24.9,30.41,NE,44,1.0,2.0,92,0.00,,,0.02,0.00,VWS V14.01,2013-12-09 03:32:00,
2013-12-08 22:37:00,26.9,24.9,30.41,NE,44,2.0,5.0,92,0.00,,,0.02,0.00,VWS V14.01,2013-12-09 03:37:00,
2013-12-08 22:42:00,26.9,24.9,30.41,NE,54,1.0,6.0,92,0.00,,,0.02,0.00,VWS V14.01,2013-12-09 03:42:00,
2013-12-08 22:47:00,27.0,25.0,30.42,NE,54,1.0,4.0,92,0.00,,,0.02,0.00,VWS V14.01,2013-12-09 03:47:00,
2013-12-08 22:52:00,27.2,25.5,30.42,NE,54,3.0,5.0,93,0.00,,,0.02,0.00,VWS V14.01,2013-12-09 03:52:00,
2013-12-08 22:57:00,27.2,25.5,30.42,NE,47,5.0,6.0,93,0.00,,,0.02,0.00,VWS V14.01,2013-12-09 03:57:00,
2013-12-08 23:02:00,27.2,25.5,30.41,NE,49,6.0,6.0,93,0.00,,,0.02,0.00,VWS V14.01,2013-12-09 04:02:00,
2013-12-08 23:07:00,27.2,25.5,30.41,NE,53,5.0,7.0,93,0.00,,,0.02,0.00,VWS V14.01,2013-12-09 04:07:00,
2013-12-08 23:12:00,27.3,25.5,30.41,NE,51,3.0,7.0,93,0.00,,,0.02,0.00,VWS V14.01,2013-12-09 04:12:00,
2013-12-08 23:16:00,27.3,25.5,30.41,NE,51,0.0,3.0,93,0.00,,,0.02,0.00,VWS V14.01,2013-12-09 04:16:00,
2013-12-08 23:21:00,27.5,26.0,30.41,NE,51,4.0,5.0,94,0.00,,,0.02,0.00,VWS V14.01,2013-12-09 04:21:00,
2013-12-08 23:26:00,27.5,26.0,30.41,NE,53,5.0,7.0,94,0.00,,,0.02,0.00,VWS V14.01,2013-12-09 04:26:00,
2013-12-08 23:31:00,27.6,26.1,30.39,NE,53,6.0,7.0,94,0.00,,,0.02,0.00,VWS V14.01,2013-12-09 04:31:00,
2013-12-08 23:36:00,27.6,26.1,30.39,ENE,59,5.0,7.0,94,0.00,,,0.02,0.00,VWS V14.01,2013-12-09 04:36:00,
2013-12-08 23:41:00,27.6,26.1,30.39,NE,49,4.0,7.0,94,0.00,,,0.02,0.00,VWS V14.01,2013-12-09 04:41:00,
2013-12-08 23:46:00,27.6,26.1,30.39,NE,38,4.0,5.0,94,0.00,,,0.02,0.00,VWS V14.01,2013-12-09 04:46:00,
2013-12-08 23:51:00,27.6,26.1,30.39,NE,52,2.0,6.0,94,0.00,,,0.02,0.00,VWS V14.01,2013-12-09 04:51:00,
2013-12-08 23:56:00,27.6,26.1,30.39,NE,40,4.0,7.0,94,0.00,,,0.02,0.00,VWS V14.01,2013-12-09 04:56:00,